[ ตารางข้อมูล ] [ Min-Max ] [ วันนี้4 ] [ วันนี้2 ] [ เทียบ3วัน A ] [ เทียบ4วัน B ]   

วันนี้2   [ ◀ ช่วงเก่ากว่า ] [ ช่วงที่ 217 ] [ ช่วงใหม่กว่า ▶ ] [ ล่าสุด ]    [ 3 ชั่วโมง ] [ 6 ชั่วโมง ] [ 12 ชั่วโมง ] [ 24 ชั่วโมง ]   วันนี้2

อุณภูมิตู้ Knockdown4529  ราย 6 ชั่วโมง  ที่วัดได้ ในช่วงวันเวลา 12/03/2026 (06:36) ถึง 12/03/2026 (12:36) 
ความชื้นในตู้ Knockdown4529  ราย 6 ชั่วโมง  ที่วัดได้ ในช่วงวันเวลา 12/03/2026 (06:36) ถึง 12/03/2026 (12:36) 

 
DS18B20SHTC3 
IDDate d/m/Y & Timedata1
สูง
data2
ต่ำ
data3
นอก
temp
pcb
hum
pcb
Time
 1776  12/03/2026 12:31:33  30.6  29.9  31.4  30.0  67.1  12:31 
 1775  12/03/2026 12:26:51  30.6  29.9  31.1  30.1  67.1  12:26 
 1774  12/03/2026 12:22:08  30.5  29.8  30.7  30.1  67.3  12:22 
 1773  12/03/2026 12:17:26  30.5  29.8  30.5  29.9  67.1  12:17 
 1772  12/03/2026 12:12:44  30.4  29.8  30.9  30.1  67.2  12:12 
 1771  12/03/2026 12:08:02  30.4  29.7  31.0  29.9  67.2  12:08 
 1770  12/03/2026 12:03:20  30.3  29.7  30.7  29.9  67.3  12:03 
 1769  12/03/2026 11:58:38  30.3  29.6  30.7  29.9  67.4  11:58 
 1768  12/03/2026 11:53:57  30.2  29.6  30.9  29.8  67.4  11:53 
 1767  12/03/2026 11:49:15  30.2  29.6  30.5  29.8  67.3  11:49 
 1766  12/03/2026 11:44:33  30.1  29.6  30.8  29.7  67.4  11:44 
 1765  12/03/2026 11:39:51  30.1  29.5  30.6  29.6  67.3  11:39 
 1764  12/03/2026 11:35:08  30.1  29.4  30.4  29.6  67.4  11:35 
 1763  12/03/2026 11:30:27  30.1  29.4  30.5  29.6  67.3  11:30 
 1762  12/03/2026 11:25:45  30.1  29.4  30.2  29.6  67.4  11:25 
 1761  12/03/2026 11:21:04  30.1  29.3  30.4  29.6  67.3  11:21 
 1760  12/03/2026 11:16:22  30.0  29.2  30.8  29.5  67.2  11:16 
 1759  12/03/2026 11:11:41  29.9  29.2  30.7  29.4  67.3  11:11 
 1758  12/03/2026 11:07:00  29.9  29.1  30.8  29.5  67.5  11:07 
 1757  12/03/2026 11:02:18  29.8  29.1  30.9  29.4  67.4  11:02 
 1756  12/03/2026 10:57:36  29.7  29.0  30.7  29.2  67.4  10:57 
 1755  12/03/2026 10:52:54  29.7  28.9  30.6  29.1  67.3  10:52 
 1754  12/03/2026 10:48:12  29.6  28.9  30.8  29.2  67.5  10:48 
 1753  12/03/2026 10:43:29  29.6  28.8  30.7  29.1  67.7  10:43 

Data every 5 minute.


ใช้เวลาประมวลผล 0.00430 วินาที